Regional Weather Roundup
Issued by NWS

Home | Current Version | Previous Version | Text Only | Print | Product List | Glossary Off
Versions: 1 2 3 4 5 6 7 8 9 10 11 12 13 14 15 16 17 18 19 20 21 22 23 24 25 26

000
ASUS45 KSLC 261410
RWRUT

UTAH REGIONAL WEATHER ROUNDUP
NATIONAL WEATHER SERVICE SALT LAKE CITY UT
800 AM MDT THU MAY 26 2016

UTZ001>011-023>025-261500-

NORTHERN UTAH

CITY           SKY/WX    TMP DP  RH WIND       PRES   REMARKS
BRIGHAM CITY     N/A     48  41  79 CALM      30.02R
DUGWAY         MOSUNNY   51  42  72 CALM      30.04
HILL AFB       MOSUNNY   49  40  69 E12       30.02R
LOGAN          MOSUNNY   41  41 100 SW3       30.06R FOG
OGDEN          SUNNY     51  42  71 SW6       30.01S
PROVO AIRPORT  MOSUNNY   52  39  62 S5        30.03R
SALT LAKE CITY MOSUNNY   54  45  71 CALM      30.01R
VERNAL         CLOUDY    54  35  48 NE5       30.00S
WENDOVER       PTSUNNY   57  36  44 NW10      30.03R
HEBER CITY     SUNNY     43  34  70 CALM      30.04S
WEST JORDAN    SUNNY     52  45  76 CALM      30.02S

$$

UTZ012>022-026-027-261500-

SOUTHERN/CENTRAL UTAH

CITY           SKY/WX    TMP DP  RH WIND       PRES   REMARKS
BLANDING       SUNNY     53  22  29 N6        30.03S
BRYCE CANYON   SUNNY     38  28  67 W3        30.05R
CEDAR CITY     SUNNY     46  33  60 CALM      30.02R
DELTA          SUNNY     46  39  76 CALM      30.02S
HANKSVILLE     MOSUNNY   61  28  29 NW10      29.92S
MILFORD        SUNNY     51  38  60 N10       30.02R
MOAB/CYNLANDS  MOSUNNY   62  28  27 CALM      29.88R
PRICE          MOSUNNY   50  29  44 W5        29.96S
ST GEORGE      SUNNY     63  30  29 CALM      29.94S
KANAB          PTSUNNY   52  30  43 CALM      30.02R

$$

REGIONAL REPORTS     COLORADO/ARIZONA

CITY           SKY/WX    TMP DP  RH WIND       PRES   REMARKS
CRAIG, CO      CLOUDY    40  33  76 CALM      30.04F
GRAND JUNCTION SUNNY     56  29  35 SE10      29.91S
RIFLE          SUNNY     48  32  53 NW3       29.98S
MONTROSE       SUNNY     54  26  34 E10       29.97S
CORTEZ         CLOUDY    56  24  29 SE22G30   29.98S
PAGE, AZ       MOSUNNY   64  27  24 VRB5      29.90R
GRAND CANYON   CLOUDY    45  29  53 CALM      30.06R
KINGMAN        SUNNY     59  32  36 S3        29.98R
FLAGSTAFF      MOSUNNY   47  23  38 W5        30.06S

$$

REGIONAL REPORTS    NEVADA/IDAHO/WYOMING

CITY           SKY/WX    TMP DP  RH WIND       PRES   REMARKS
LAS VEGAS, NV  SUNNY     63  36  36 S5        29.90R
ELY            CLOUDY    39  36  89 S5        30.11R
ELKO           CLOUDY    41  39  93 CALM      30.10R
POCATELLO, ID  SUNNY     49  44  83 SW6       30.07R
BURLEY         SUNNY     48  41  76 S5        30.04R
EVANSTON, WY   SUNNY     41  35  79 N6        30.09R
ROCK SPRINGS   SUNNY     41  37  86 W5        30.07S
KEMMERER         N/A     41  34  75 CALM      30.10R

$$




USA.gov is the U.S. government's official web portal to all federal, state and local government web resources and services.